TimeEST,TemperatureF,Dew PointF,Humidity,Sea Level PressureIn,VisibilityMPH,Wind Direction,Wind SpeedMPH,Gust SpeedMPH,PrecipitationIn,Events,Conditions,WindDirDegrees,DateUTC
12:53 AM,61.0,57.0,87,30.08,10.0,NNE,5.8,-,N/A,,Clear,30,2012-11-17 05:53:00
1:53 AM,61.0,57.9,90,30.07,10.0,NNE,5.8,-,N/A,,Mostly Cloudy,20,2012-11-17 06:53:00
2:53 AM,60.1,57.9,93,30.06,9.0,North,5.8,-,N/A,,Clear,10,2012-11-17 07:53:00
3:12 AM,60.8,57.2,88,30.07,9.0,NNE,8.1,-,N/A,,Partly Cloudy,20,2012-11-17 08:12:00
3:29 AM,60.8,57.2,88,30.07,8.0,NNE,6.9,-,N/A,,Mostly Cloudy,30,2012-11-17 08:29:00
3:53 AM,61.0,57.9,90,30.06,8.0,NNE,6.9,-,N/A,,Overcast,30,2012-11-17 08:53:00
4:53 AM,61.0,59.0,93,30.08,7.0,NNE,8.1,-,N/A,,Overcast,30,2012-11-17 09:53:00
5:22 AM,62.6,59.0,88,30.09,7.0,NNE,4.6,-,N/A,,Overcast,30,2012-11-17 10:22:00
5:53 AM,62.1,60.1,93,30.09,7.0,NE,9.2,-,N/A,,Overcast,40,2012-11-17 10:53:00
6:53 AM,63.0,60.1,90,30.10,7.0,NE,8.1,-,N/A,,Overcast,50,2012-11-17 11:53:00
7:10 AM,62.6,60.8,94,30.11,6.0,NE,10.4,-,N/A,,Overcast,50,2012-11-17 12:10:00
7:53 AM,64.4,60.8,88,30.12,8.0,NE,11.5,-,N/A,,Overcast,50,2012-11-17 12:53:00
8:49 AM,68.0,60.8,78,30.12,10.0,NE,11.5,-,N/A,,Scattered Clouds,50,2012-11-17 13:49:00
8:53 AM,68.0,61.0,78,30.12,10.0,NE,10.4,-,N/A,,Partly Cloudy,50,2012-11-17 13:53:00
9:53 AM,72.0,60.1,66,30.12,10.0,ENE,12.7,-,N/A,,Clear,60,2012-11-17 14:53:00
10:53 AM,77.0,61.0,58,30.10,10.0,East,13.8,-,N/A,,Clear,80,2012-11-17 15:53:00
11:53 AM,77.0,61.0,58,30.08,10.0,East,11.5,-,N/A,,Partly Cloudy,80,2012-11-17 16:53:00
12:53 PM,79.0,61.0,54,30.06,10.0,East,10.4,20.7,N/A,,Clear,90,2012-11-17 17:53:00
1:53 PM,79.0,59.0,50,30.04,10.0,East,12.7,-,N/A,,Clear,90,2012-11-17 18:53:00
2:53 PM,80.1,60.1,50,30.03,10.0,East,10.4,-,N/A,,Partly Cloudy,90,2012-11-17 19:53:00
3:53 PM,80.1,59.0,48,30.03,10.0,NE,9.2,-,N/A,,Clear,50,2012-11-17 20:53:00
4:53 PM,78.1,59.0,52,30.04,10.0,ENE,12.7,-,N/A,,Partly Cloudy,60,2012-11-17 21:53:00
5:53 PM,73.9,60.1,62,30.05,10.0,ENE,6.9,-,N/A,,Partly Cloudy,60,2012-11-17 22:53:00
6:53 PM,72.0,60.1,66,30.06,10.0,NE,11.5,-,N/A,,Scattered Clouds,50,2012-11-17 23:53:00
7:53 PM,70.0,61.0,73,30.09,10.0,NE,10.4,-,N/A,,Scattered Clouds,50,2012-11-18 00:53:00
8:53 PM,68.0,61.0,78,30.10,10.0,NE,9.2,-,N/A,,Clear,50,2012-11-18 01:53:00
9:53 PM,66.9,61.0,81,30.10,10.0,ENE,10.4,-,N/A,,Clear,60,2012-11-18 02:53:00
10:53 PM,66.9,60.1,79,30.10,10.0,NNE,11.5,19.6,N/A,,Clear,30,2012-11-18 03:53:00
11:53 PM,66.0,61.0,84,30.09,10.0,NE,10.4,-,N/A,,Clear,40,2012-11-18 04:53:00